Location: Niverville
(49.6028°N, 97.0419°W)
Time: 22:10:52
(UTC-05:00)

ISS - All Passes

Search period start: 01 April 2015 00:00
Search period end: 11 April 2015 00:00
Orbit: 396 x 405 km, 51.6° (Epoch: 01 April)

Date Brightness Start Highest point End Pass type
(mag) Time Alt. Az. Time Alt. Az. Time Alt. Az.
01 Apr - 01:06:05 10° W 01:09:19 68° NNW 01:12:34 10° ENE night (unlit)
01 Apr - 02:42:41 10° WNW 02:45:55 64° N 02:49:09 10° E night (unlit)
01 Apr - 04:19:09 10° WNW 04:22:17 46° SSW 04:25:24 10° SE visible
01 Apr - 22:36:56 10° SSW 22:39:39 25° SE 22:42:24 10° E night (unlit)
02 Apr - 00:12:32 10° WSW 00:15:48 87° NNW 00:19:04 10° ENE night (unlit)
02 Apr - 01:49:08 10° WNW 01:52:22 58° N 01:55:34 10° E night (unlit)
02 Apr - 03:25:36 10° WNW 03:28:51 71° SSW 03:32:04 10° ESE night (unlit)
02 Apr - 05:02:40 10° W 05:04:50 16° SW 05:06:56 10° S night (unlit)
02 Apr - 21:44:21 10° S 21:46:19 15° SE 21:48:21 10° E visible
02 Apr - 23:19:02 10° WSW 23:22:16 67° SSE 23:25:31 10° ENE night (unlit)
03 Apr - 00:55:31 10° W 00:58:45 58° N 01:01:58 10° ENE night (unlit)
03 Apr - 02:32:03 10° WNW 02:35:20 83° NNE 02:38:34 10° ESE night (unlit)
03 Apr - 04:08:41 10° W 04:11:29 26° SW 04:14:15 10° SSE night (unlit)
03 Apr - 22:25:40 10° SW 22:28:47 43° SSE 22:31:54 10° ENE visible
04 Apr - 00:01:52 10° W 00:05:08 66° N 00:08:22 10° ENE night (unlit)
04 Apr - 01:38:28 10° WNW 01:41:43 66° N 01:44:57 10° E night (unlit)
04 Apr - 03:14:57 10° WNW 03:18:03 42° SSW 03:21:07 10° SE night (unlit)
04 Apr - 21:32:30 10° SSW 21:35:19 27° SE 21:38:09 10° E visible
04 Apr - 23:08:13 10° WSW 23:11:29 82° NNW 23:14:45 10° ENE visible
05 Apr - 00:44:49 10° WNW 00:48:03 58° N 00:51:16 10° E night (unlit)
05 Apr - 02:21:17 10° WNW 02:24:31 66° SSW 02:27:44 10° ESE night (unlit)
05 Apr - 03:58:30 10° WSW 04:00:27 15° SW 04:02:20 10° S night (unlit)
05 Apr - 20:39:41 10° S 20:41:52 17° SE 20:44:06 10° E visible
05 Apr - 22:14:37 10° WSW 22:17:52 72° SSE 22:21:07 10° ENE visible
05 Apr - 23:51:07 10° W 23:54:21 58° N 23:57:34 10° ENE visible
06 Apr - 01:27:38 10° WNW 01:30:54 88° NNE 01:34:09 10° ESE night (unlit)
06 Apr - 03:04:19 10° W 03:07:01 24° SW 03:09:41 10° SSE night (unlit)
06 Apr - 21:21:05 10° SW 21:24:15 47° SSE 21:27:25 10° ENE visible
06 Apr - 22:57:22 10° W 23:00:37 63° N 23:03:52 10° ENE visible
07 Apr - 00:33:57 10° WNW 00:37:12 69° N 00:40:27 10° E night (unlit)
07 Apr - 02:10:26 10° W 02:13:30 38° SSW 02:16:31 10° SE night (unlit)
07 Apr - 20:27:46 10° SSW 20:30:40 30° SSE 20:33:35 10° E daylight
07 Apr - 22:03:36 10° WSW 22:06:52 78° NNW 22:10:09 10° ENE visible
07 Apr - 23:40:12 10° WNW 23:43:26 59° N 23:46:40 10° E visible
08 Apr - 01:16:39 10° WNW 01:19:53 60° SSW 01:23:05 10° SE night (unlit)
08 Apr - 02:54:04 10° WSW 02:55:46 13° SW 02:57:24 10° SSW night (unlit)
08 Apr - 19:34:46 10° S 19:37:07 19° SE 19:39:30 10° E daylight
08 Apr - 21:09:52 10° WSW 21:13:08 78° SSE 21:16:24 10° ENE visible
08 Apr - 22:46:24 10° W 22:49:38 57° N 22:52:52 10° E visible
09 Apr - 00:22:54 10° WNW 00:26:10 88° SSW 00:29:25 10° ESE visible
09 Apr - 01:59:38 10° W 02:02:15 22° SW 02:04:49 10° SSE night (unlit)
09 Apr - 18:42:36 10° SSE 18:43:35 11° SE 18:44:40 10° ESE daylight
09 Apr - 20:16:14 10° SW 20:19:25 52° SSE 20:22:37 10° ENE daylight
09 Apr - 21:52:33 10° W 21:55:48 62° N 21:59:03 10° ENE visible
09 Apr - 23:29:07 10° WNW 23:32:23 71° NNE 23:35:38 10° E visible
10 Apr - 01:05:37 10° W 01:08:38 35° SSW 01:11:38 10° SE night (unlit)
10 Apr - 19:22:45 10° SSW 19:25:43 32° SSE 19:28:42 10° E daylight
10 Apr - 20:58:41 10° W 21:01:57 74° NNW 21:05:13 10° ENE visible
10 Apr - 22:35:17 10° WNW 22:38:31 60° N 22:41:45 10° E visible
